Andover, NJ

6:39 PM EDT on May 27, 2018 (GMT -0400)
Andover

Weather History for K12N - March, 2013

Change the Weather History Date:

Sunday, March 17, 2013

  Actual Average (WUND) Record (WUND)
Temperature  
Mean Temperature 30 °F -  
Max Temperature 35 °F - - (-1)
Min Temperature 25 °F - - (-1)
Degree Days  
Heating Degree Days 35    
Moisture  
Dew Point 16 °F    
Average Humidity 57    
Maximum Humidity 92    
Minimum Humidity 40    
Precipitation  
Precipitation 0.00 in - - ()
Sea Level Pressure  
Sea Level Pressure 30.14 in    
Wind  
Wind Speed 4 mph (North)    
Max Wind Speed 9 mph    
Max Gust Speed -    
Averages and records for this station are not official NWS values.
T = Trace of Precipitation, MM = Missing Value Source: NWS Daily Summary

Daily Weather History Graph

Daily Weather History Graph

Search for Another Location

Airport or City:

Astronomy

Mar. 17, 2013 Rise Set
Actual Time 7:06 AM EDT 7:08 PM EDT
Civil Twilight 6:39 AM EDT 7:35 PM EDT
Nautical Twilight 6:07 AM EDT 8:07 PM EDT
Astronomical Twilight 5:35 AM EDT 8:40 PM EDT
Moon 10:15 AM EDT (3/17) 12:16 AM EDT (3/17)
Length of Visible Light 12h 55m
Length of Day
12h 01m
Waxing Crescent, 31% of the Moon is Illuminated
Mar 17
Waxing Crescent
Mar 19
First Quarter
Mar 27
Full
Apr 3
Last Quarter
Apr 10
New

Hourly Weather History & Observations

Time (EDT) Temp. Windchill Dew Point Humidity Pressure Visibility Wind Dir Wind Speed Gust Speed Precip Events Conditions
12:54 AM 28.0 °F - 26.1 °F 92% 29.95 in - Calm Calm - N/A   Unknown
1:54 AM 30.0 °F - 25.0 °F 82% 29.95 in - Calm Calm - N/A   Unknown
2:54 AM 30.0 °F 26.5 °F 23.0 °F 75% 29.97 in - Variable 3.5 mph - N/A   Unknown
3:54 AM 30.0 °F 25.2 °F 21.0 °F 69% 29.98 in - North 4.6 mph - N/A   Unknown
4:54 AM 28.9 °F 23.9 °F 19.9 °F 69% 30.00 in - North 4.6 mph - N/A   Unknown
5:54 AM 27.0 °F 21.6 °F 17.1 °F 66% 30.04 in - North 4.6 mph - N/A   Unknown
6:54 AM 25.0 °F 20.7 °F 16.0 °F 69% 30.09 in - North 3.5 mph - N/A   Unknown
7:54 AM 25.0 °F - 17.1 °F 72% 30.12 in - Calm Calm - N/A   Unknown
8:54 AM 27.0 °F 18.7 °F 16.0 °F 63% 30.14 in - North 8.1 mph - N/A   Unknown
9:54 AM 28.9 °F 21.9 °F 15.1 °F 56% 30.16 in - NNW 6.9 mph - N/A   Unknown
10:54 AM 30.0 °F 22.4 °F 15.1 °F 54% 30.16 in - North 8.1 mph - N/A   Unknown
11:54 AM 30.9 °F 23.5 °F 17.1 °F 57% 30.16 in - North 8.1 mph - N/A   Unknown
12:54 PM 32.0 °F 25.6 °F 15.1 °F 50% 30.17 in - Variable 6.9 mph - N/A   Unknown
1:54 PM 34.0 °F 28.8 °F 15.1 °F 46% 30.17 in - North 5.8 mph - N/A   Unknown
2:54 PM 35.1 °F 27.9 °F 14.0 °F 42% 30.16 in - NNW 9.2 mph - N/A   Unknown
3:54 PM 35.1 °F 28.6 °F 14.0 °F 42% 30.17 in - North 8.1 mph - N/A   Unknown
4:54 PM 35.1 °F 28.6 °F 12.9 °F 40% 30.18 in - North 8.1 mph - N/A   Unknown
5:54 PM 34.0 °F 28.8 °F 12.9 °F 42% 30.20 in - Variable 5.8 mph - N/A   Unknown
6:54 PM 33.1 °F - 12.0 °F 42% 30.23 in - Calm Calm - N/A   Unknown
7:54 PM 32.0 °F 28.7 °F 14.0 °F 48% 30.25 in - NNW 3.5 mph - N/A   Unknown
8:54 PM 30.0 °F - 17.1 °F 59% 30.28 in - Calm Calm - N/A   Unknown
9:54 PM 30.9 °F 27.5 °F 10.9 °F 43% 30.30 in - North 3.5 mph - N/A   Unknown
10:54 PM 28.9 °F 25.2 °F 12.0 °F 49% 30.32 in - Variable 3.5 mph - N/A   Unknown
11:54 PM 28.0 °F - 12.0 °F 51% 30.32 in - Calm Calm - N/A   Unknown